,,Stat6,,Stat2,,Stat8,,Stat9,,Stat10,,Wind1,,Wind1,
time,status,PA1M_AVG,status,PR1M_SUM,status,RH1M_AVG,status,SR1M_AVG,status,TA1M_AVG,status,W1dAve1m,status,W1sAve1m,
2008-04-03, 00:00:00,VALID,918.44,VALID,0,VALID,100,VALID,-0.0169808,VALID,20.9806,VALID,12,VALID,0.638021,
2008-04-03, 00:01:00,VALID,918.423,VALID,0,VALID,100,VALID,-0.0169808,VALID,20.9904,VALID,15,VALID,1.1399,
2008-04-03, 00:02:00,VALID,918.402,VALID,0,VALID,100,VALID,-0.0169808,VALID,20.9747,VALID,19,VALID,0.91183,
2008-04-03, 00:03:00,VALID,918.384,VALID,0,VALID,100,VALID,0,VALID,20.9706,VALID,22,VALID,1.08454,
2008-04-03, 00:04:00,VALID,918.358,VALID,0,VALID,100,VALID,-0.0339617,VALID,20.9579,VALID,5,VALID,1.01806,
2008-04-03, 00:05:00,VALID,918.339,VALID,0,VALID,100,VALID,-0.0339617,VALID,20.9617,VALID,19,VALID,0.710227,
2008-04-03, 00:06:00,VALID,918.311,VALID,0,VALID,100,VALID,-0.0339617,VALID,20.9522,VALID,355,VALID,1.18613,
2008-04-03, 00:07:00,VALID,918.277,VALID,0,VALID,100,VALID,-0.0509425,VALID,20.9555,VALID,21,VALID,0.874455,
2008-04-03, 00:08:00,VALID,918.239,VALID,0,VALID,100,VALID,-0.0339617,VALID,20.9555,VALID,24,VALID,1.62336,
2008-04-03, 00:09:00,VALID,918.227,VALID,0,VALID,100,VALID,-0.0509425,VALID,20.9652,VALID,33,VALID,1.63118,
2008-04-03, 00:10:00,VALID,918.221,VALID,0,VALID,100,VALID,-0.0169808,VALID,20.9884,VALID,12,VALID,0.48819,
2008-04-03, 00:11:00,VALID,918.201,VALID,0,VALID,100,VALID,-0.0169808,VALID,20.9909,VALID,24,VALID,0.748547,
2008-04-03, 00:12:00,VALID,918.19,VALID,0,VALID,100,VALID,-0.0169808,VALID,21.0004,VALID,21,VALID,0.854883,
2008-04-03, 00:13:00,VALID,918.167,VALID,0,VALID,99.866,VALID,-0.0339617,VALID,20.9882,VALID,16,VALID,1.7016,
2008-04-03, 00:14:00,VALID,918.143,VALID,0,VALID,99.6798,VALID,-0.0679233,VALID,20.9395,VALID,21,VALID,1.27772,
2008-04-03, 00:15:00,VALID,918.129,VALID,0,VALID,99.6887,VALID,-0.0849042,VALID,20.9398,VALID,4,VALID,0.696075,
2008-04-03, 00:16:00,VALID,918.109,VALID,0,VALID,99.7002,VALID,-0.0849042,VALID,20.9427,VALID,49,VALID,0.053234,
2008-04-03, 00:17:00,VALID,918.078,VALID,0,VALID,99.7078,VALID,-0.0679233,VALID,20.9357,VALID,35,VALID,0.0237847,
2008-04-03, 00:18:00,VALID,918.051,VALID,0,VALID,99.7701,VALID,-0.0509425,VALID,20.9522,VALID,8,VALID,0,
2008-04-03, 00:19:00,VALID,918.016,VALID,0,VALID,99.8006,VALID,0,VALID,20.9584,VALID,8,VALID,0,
2008-04-03, 00:20:00,VALID,917.99,VALID,0,VALID,99.8324,VALID,-0.0339617,VALID,20.972,VALID,8,VALID,0,
2008-04-03, 00:21:00,VALID,917.97,VALID,0,VALID,99.8388,VALID,-0.0509425,VALID,20.9784,VALID,8,VALID,0,
2008-04-03, 00:22:00,VALID,917.951,VALID,0,VALID,99.8146,VALID,-0.0509425,VALID,20.979,VALID,8,VALID,0,
2008-04-03, 00:23:00,VALID,917.92,VALID,0,VALID,99.8833,VALID,-0.101885,VALID,20.9817,VALID,8,VALID,0.0377604,
2008-04-03, 00:24:00,VALID,917.921,VALID,0,VALID,99.987,VALID,-0.0679233,VALID,21.0009,VALID,17,VALID,0.00133384,
2008-04-03, 00:25:00,VALID,917.906,VALID,0,VALID,99.9062,VALID,-0.0169808,VALID,21.0041,VALID,29,VALID,0,
2008-04-03, 00:26:00,VALID,917.906,VALID,0,VALID,99.8438,VALID,-0.0679233,VALID,20.9884,VALID,29,VALID,0,
2008-04-03, 00:27:00,VALID,917.907,VALID,0,VALID,99.896,VALID,-0.0849042,VALID,20.9787,VALID,24,VALID,0,
2008-04-03, 00:28:00,VALID,917.919,VALID,0,VALID,99.9832,VALID,-0.0849042,VALID,20.9649,VALID,19,VALID,0,
2008-04-03, 00:29:00,VALID,917.929,VALID,0,VALID,99.8716,VALID,-0.0339617,VALID,20.949,VALID,20,VALID,0.691406,
2008-04-03, 00:30:00,VALID,917.937,VALID,0,VALID,99.9387,VALID,-0.0169808,VALID,20.9425,VALID,34,VALID,0.695313,
2008-04-03, 00:31:00,VALID,917.954,VALID,0,VALID,100,VALID,-0.0679233,VALID,20.939,VALID,33,VALID,0.752046,
2008-04-03, 00:32:00,VALID,917.953,VALID,0,VALID,100,VALID,-0.0169808,VALID,20.9427,VALID,28,VALID,0.727805,
2008-04-03, 00:33:00,VALID,917.954,VALID,0,VALID,100,VALID,-0.0339617,VALID,20.9327,VALID,18,VALID,0.962936,
2008-04-03, 00:34:00,VALID,917.948,VALID,0,VALID,99.9952,VALID,-0.0679233,VALID,20.9392,VALID,17,VALID,1.057,
2008-04-03, 00:35:00,VALID,917.968,VALID,0,VALID,99.9695,VALID,-0.0339617,VALID,20.9362,VALID,12,VALID,1.14753,
2008-04-03, 00:36:00,VALID,917.977,VALID,0,VALID,99.8858,VALID,-0.0339617,VALID,20.9398,VALID,10,VALID,1.15774,
2008-04-03, 00:37:00,VALID,917.971,VALID,0,VALID,99.8515,VALID,-0.0509425,VALID,20.9433,VALID,17,VALID,1.03252,
2008-04-03, 00:38:00,VALID,917.981,VALID,0,VALID,99.8006,VALID,-0.0679233,VALID,20.9298,VALID,15,VALID,1.10996,
2008-04-03, 00:39:00,VALID,917.97,VALID,0,VALID,99.7943,VALID,-0.0679233,VALID,20.9162,VALID,10,VALID,0.724432,
2008-04-03, 00:40:00,VALID,917.95,VALID,0,VALID,99.8197,VALID,-0.0339617,VALID,20.91,VALID,4,VALID,0.0658482,
2008-04-03, 00:41:00,VALID,917.905,VALID,0,VALID,99.8108,VALID,-0.101885,VALID,20.9033,VALID,356,VALID,0,
2008-04-03, 00:42:00,VALID,917.846,VALID,0,VALID,99.9163,VALID,-0.0679233,VALID,20.917,VALID,356,VALID,0,
2008-04-03, 00:43:00,VALID,917.78,VALID,0,VALID,99.7536,VALID,-0.0169808,VALID,20.9033,VALID,348,VALID,0,
2008-04-03, 00:44:00,VALID,917.72,VALID,0,VALID,99.6709,VALID,-0.0509425,VALID,20.8938,VALID,349,VALID,0,
2008-04-03, 00:45:00,VALID,917.643,VALID,0,VALID,99.6607,VALID,-0.0849042,VALID,20.8881,VALID,351,VALID,0,
2008-04-03, 00:46:00,VALID,917.575,VALID,0,VALID,99.6684,VALID,-0.0849042,VALID,20.8843,VALID,3,VALID,0.130907,
2008-04-03, 00:47:00,VALID,917.538,VALID,0,VALID,99.7256,VALID,-0.0679233,VALID,20.9073,VALID,3,VALID,0.0494792,
2008-04-03, 00:48:00,VALID,917.516,VALID,0,VALID,99.5641,VALID,-0.118866,VALID,20.8911,VALID,3,VALID,0.0846657,
2008-04-03, 00:49:00,VALID,917.493,VALID,0,VALID,99.5997,VALID,-0.101885,VALID,20.8905,VALID,4,VALID,0.00218023,
2008-04-03, 00:50:00,VALID,917.488,VALID,0,VALID,99.7358,VALID,-0.0679233,VALID,20.9043,VALID,5,VALID,0,
2008-04-03, 00:51:00,VALID,917.503,VALID,0,VALID,99.7841,VALID,-0.0509425,VALID,20.9227,VALID,5,VALID,0,
2008-04-03, 00:52:00,VALID,917.517,VALID,0,VALID,99.7574,VALID,-0.0509425,VALID,20.9365,VALID,5,VALID,0,
2008-04-03, 00:53:00,VALID,917.53,VALID,0,VALID,99.7154,VALID,-0.101885,VALID,20.9333,VALID,5,VALID,0,
2008-04-03, 00:54:00,VALID,917.555,VALID,0,VALID,99.7612,VALID,-0.0679233,VALID,20.9227,VALID,5,VALID,0,
2008-04-03, 00:55:00,VALID,917.576,VALID,0,VALID,99.7892,VALID,-0.0849042,VALID,20.9165,VALID,16,VALID,0,
2008-04-03, 00:56:00,VALID,917.594,VALID,0,VALID,99.7955,VALID,-0.0849042,VALID,20.9068,VALID,32,VALID,0.17951,
2008-04-03, 00:57:00,VALID,917.596,VALID,0,VALID,99.6811,VALID,-0.0509425,VALID,20.8811,VALID,1,VALID,1.31577,
2008-04-03, 00:58:00,VALID,917.598,VALID,0,VALID,99.3314,VALID,-0.0509425,VALID,20.8421,VALID,350,VALID,1.03161,
2008-04-03, 00:59:00,VALID,917.578,VALID,0,VALID,99.4128,VALID,-0.0339617,VALID,20.8289,VALID,15,VALID,0.938953,
2008-04-03, 01:00:00,VALID,917.568,VALID,0,VALID,99.4153,VALID,-0.0509425,VALID,20.8454,VALID,17,VALID,0.758681,
2008-04-03, 01:01:00,VALID,917.537,VALID,0,VALID,99.3556,VALID,-0.0509425,VALID,20.8483,VALID,13,VALID,0.431076,
2008-04-03, 01:02:00,VALID,917.495,VALID,0,VALID,99.3479,VALID,-0.0339617,VALID,20.8521,VALID,10,VALID,0.212936,
2008-04-03, 01:03:00,VALID,917.455,VALID,0,VALID,99.208,VALID,-0.0509425,VALID,20.8254,VALID,340,VALID,0.216704,
2008-04-03, 01:04:00,VALID,917.427,VALID,0,VALID,99.1915,VALID,-0.0509425,VALID,20.8156,VALID,332,VALID,0,
2008-04-03, 01:05:00,VALID,917.391,VALID,0,VALID,99.1979,VALID,0.0169808,VALID,20.8176,VALID,332,VALID,0,
2008-04-03, 01:06:00,VALID,917.394,VALID,0,VALID,99.2017,VALID,0,VALID,20.8211,VALID,332,VALID,0,
2008-04-03, 01:07:00,VALID,917.392,VALID,0,VALID,99.1394,VALID,0,VALID,20.8346,VALID,332,VALID,0,
2008-04-03, 01:08:00,VALID,917.406,VALID,0,VALID,99.1483,VALID,0,VALID,20.8316,VALID,332,VALID,0,
2008-04-03, 01:09:00,VALID,917.416,VALID,0,VALID,99.1445,VALID,0.0169808,VALID,20.8376,VALID,326,VALID,0,
2008-04-03, 01:10:00,VALID,917.432,VALID,0,VALID,99.0987,VALID,0,VALID,20.8443,VALID,297,VALID,0.0230741,
2008-04-03, 01:11:00,VALID,917.435,VALID,0,VALID,99.1139,VALID,0,VALID,20.8378,VALID,297,VALID,0,
2008-04-03, 01:12:00,VALID,917.422,VALID,0,VALID,99.0313,VALID,0,VALID,20.8248,VALID,297,VALID,0,
2008-04-03, 01:13:00,VALID,917.392,VALID,0,VALID,99.1292,VALID,0,VALID,20.8076,VALID,297,VALID,0,
2008-04-03, 01:14:00,VALID,917.361,VALID,0,VALID,99.2589,VALID,-0.0169808,VALID,20.8216,VALID,297,VALID,0,
2008-04-03, 01:15:00,VALID,917.326,VALID,0,VALID,99.2068,VALID,-0.0169808,VALID,20.8119,VALID,297,VALID,0,
2008-04-03, 01:16:00,VALID,917.302,VALID,0,VALID,99.2513,VALID,0.0169808,VALID,20.8083,VALID,300,VALID,0,
2008-04-03, 01:17:00,VALID,917.312,VALID,0,VALID,99.3136,VALID,0,VALID,20.7994,VALID,357,VALID,0.207485,
2008-04-03, 01:18:00,VALID,917.329,VALID,0,VALID,99.3238,VALID,0,VALID,20.7829,VALID,16,VALID,0.0405869,
2008-04-03, 01:19:00,VALID,917.342,VALID,0,VALID,99.2373,VALID,0,VALID,20.7402,VALID,29,VALID,0,
2008-04-03, 01:20:00,VALID,917.352,VALID,0,VALID,99.3784,VALID,0,VALID,20.6888,VALID,36,VALID,0.00130208,
2008-04-03, 01:21:00,VALID,917.366,VALID,0,VALID,99.6239,VALID,0,VALID,20.682,VALID,43,VALID,0.0498512,
2008-04-03, 01:22:00,VALID,917.359,VALID,0,VALID,99.704,VALID,0,VALID,20.6583,VALID,41,VALID,0,
2008-04-03, 01:23:00,VALID,917.374,VALID,0,VALID,99.7485,VALID,0,VALID,20.6426,VALID,30,VALID,0,
2008-04-03, 01:24:00,VALID,917.385,VALID,0,VALID,99.91,VALID,0,VALID,20.6298,VALID,10,VALID,0,
2008-04-03, 01:25:00,VALID,917.389,VALID,0,VALID,99.999,VALID,0,VALID,20.6396,VALID,32,VALID,0.657885,
2008-04-03, 01:26:00,VALID,917.395,VALID,0,VALID,100,VALID,0,VALID,20.6585,VALID,28,VALID,0.805903,
2008-04-03, 01:27:00,VALID,917.38,VALID,0,VALID,100,VALID,0,VALID,20.6915,VALID,26,VALID,0.776456,
2008-04-03, 01:28:00,VALID,917.375,VALID,0,VALID,100,VALID,0,VALID,20.7207,VALID,23,VALID,0.656822,
2008-04-03, 01:29:00,VALID,917.361,VALID,0,VALID,100,VALID,0,VALID,20.7367,VALID,23,VALID,0.537246,
2008-04-03, 01:30:00,VALID,917.345,VALID,0,VALID,100,VALID,-0.0169808,VALID,20.7399,VALID,23,VALID,0.441883,
2008-04-03, 01:31:00,VALID,917.342,VALID,0,VALID,100,VALID,0,VALID,20.7659,VALID,26,VALID,0.613372,
2008-04-03, 01:32:00,VALID,917.355,VALID,0,VALID,100,VALID,-0.0169808,VALID,20.7916,VALID,29,VALID,0.255327,
2008-04-03, 01:33:00,VALID,917.364,VALID,0,VALID,100,VALID,0.0339617,VALID,20.8043,VALID,30,VALID,0,
2008-04-03, 01:34:00,VALID,917.392,VALID,0,VALID,100,VALID,0,VALID,20.8046,VALID,32,VALID,0,
2008-04-03, 01:35:00,VALID,917.398,VALID,0,VALID,100,VALID,0,VALID,20.8213,VALID,31,VALID,0,
2008-04-03, 01:36:00,VALID,917.421,VALID,0,VALID,100,VALID,0.0169808,VALID,20.824,VALID,31,VALID,0,
2008-04-03, 01:37:00,VALID,917.44,VALID,0,VALID,100,VALID,0.0169808,VALID,20.8335,VALID,31,VALID,0,
2008-04-03, 01:38:00,VALID,917.444,VALID,0,VALID,100,VALID,0,VALID,20.814,VALID,37,VALID,0,
2008-04-03, 01:39:00,VALID,917.453,VALID,0,VALID,100,VALID,0,VALID,20.8081,VALID,45,VALID,0.0190549,
2008-04-03, 01:40:00,VALID,917.443,VALID,0,VALID,100,VALID,0,VALID,20.8246,VALID,41,VALID,0.245998,
2008-04-03, 01:41:00,VALID,917.457,VALID,0,VALID,100,VALID,-0.0169808,VALID,20.8343,VALID,36,VALID,0.837109,
2008-04-03, 01:42:00,VALID,917.477,VALID,0,VALID,100,VALID,0.0169808,VALID,20.8246,VALID,28,VALID,1.08467,
2008-04-03, 01:43:00,VALID,917.493,VALID,0,VALID,100,VALID,0,VALID,20.8051,VALID,22,VALID,1.03925,
2008-04-03, 01:44:00,VALID,917.501,VALID,0,VALID,100,VALID,0.0169808,VALID,20.7856,VALID,27,VALID,0.755335,
2008-04-03, 01:45:00,VALID,917.523,VALID,0,VALID,100,VALID,0,VALID,20.7824,VALID,29,VALID,1.01451,
2008-04-03, 01:46:00,VALID,917.527,VALID,0,VALID,100,VALID,-0.0169808,VALID,20.7919,VALID,23,VALID,0.753049,
2008-04-03, 01:47:00,VALID,917.523,VALID,0,VALID,100,VALID,0.0169808,VALID,20.8178,VALID,34,VALID,0.764824,
2008-04-03, 01:48:00,VALID,917.503,VALID,0,VALID,100,VALID,-0.0339617,VALID,20.8208,VALID,33,VALID,0.213715,
2008-04-03, 01:49:00,VALID,917.49,VALID,0,VALID,100,VALID,-0.0339617,VALID,20.8281,VALID,27,VALID,0.528088,
2008-04-03, 01:50:00,VALID,917.464,VALID,0,VALID,100,VALID,0.0509425,VALID,20.8078,VALID,26,VALID,0.79723,
2008-04-03, 01:51:00,VALID,917.458,VALID,0,VALID,100,VALID,0.0509425,VALID,20.8113,VALID,27,VALID,0.862537,
2008-04-03, 01:52:00,VALID,917.466,VALID,0,VALID,100,VALID,0.0339617,VALID,20.7978,VALID,19,VALID,0.234756,
2008-04-03, 01:53:00,VALID,917.455,VALID,0,VALID,100,VALID,0.0509425,VALID,20.7816,VALID,15,VALID,0.805398,
2008-04-03, 01:54:00,VALID,917.453,VALID,0,VALID,100,VALID,0.0849042,VALID,20.7689,VALID,17,VALID,1.42422,
2008-04-03, 01:55:00,VALID,917.447,VALID,0,VALID,100,VALID,0,VALID,20.7462,VALID,17,VALID,0.933061,
2008-04-03, 01:56:00,VALID,917.454,VALID,0,VALID,100,VALID,0.0169808,VALID,20.7394,VALID,21,VALID,0.888139,
2008-04-03, 01:57:00,VALID,917.451,VALID,0,VALID,100,VALID,0.0679233,VALID,20.7459,VALID,29,VALID,0.670313,
2008-04-03, 01:58:00,VALID,917.432,VALID,0,VALID,100,VALID,0.0509425,VALID,20.7556,VALID,32,VALID,0.740972,
2008-04-03, 01:59:00,VALID,917.424,VALID,0,VALID,100,VALID,0.0339617,VALID,20.7686,VALID,30,VALID,0.199128,
2008-04-03, 02:00:00,VALID,917.425,VALID,0,VALID,100,VALID,0.0509425,VALID,20.7816,VALID,30,VALID,0.272249,
2008-04-03, 02:01:00,VALID,917.431,VALID,0,VALID,100,VALID,0.0849042,VALID,20.7976,VALID,32,VALID,0.340661,
2008-04-03, 02:02:00,VALID,917.44,VALID,0,VALID,100,VALID,0.0509425,VALID,20.7913,VALID,29,VALID,0.534884,
2008-04-03, 02:03:00,VALID,917.461,VALID,0,VALID,100,VALID,0.0679233,VALID,20.7686,VALID,33,VALID,0.744093,
2008-04-03, 02:04:00,VALID,917.484,VALID,0,VALID,100,VALID,0.0509425,VALID,20.7621,VALID,33,VALID,0.990234,
2008-04-03, 02:05:00,VALID,917.511,VALID,0,VALID,100,VALID,0,VALID,20.7575,VALID,22,VALID,1.23837,
2008-04-03, 02:06:00,VALID,917.539,VALID,0,VALID,100,VALID,-0.0679233,VALID,20.728,VALID,20,VALID,1.49055,
2008-04-03, 02:07:00,VALID,917.558,VALID,0,VALID,100,VALID,-0.0679233,VALID,20.702,VALID,8,VALID,1.5943,
2008-04-03, 02:08:00,VALID,917.561,VALID,0,VALID,100,VALID,-0.0169808,VALID,20.6888,VALID,17,VALID,1.60085,
2008-04-03, 02:09:00,VALID,917.561,VALID,0,VALID,100,VALID,-0.0679233,VALID,20.6761,VALID,3,VALID,1.41388,
2008-04-03, 02:10:00,VALID,917.547,VALID,0,VALID,100,VALID,-0.0849042,VALID,20.6793,VALID,20,VALID,1.20331,
2008-04-03, 02:11:00,VALID,917.527,VALID,0,VALID,100,VALID,-0.0339617,VALID,20.6728,VALID,19,VALID,1.28303,
2008-04-03, 02:12:00,VALID,917.488,VALID,0,VALID,100,VALID,-0.0509425,VALID,20.6598,VALID,12,VALID,1.54563,
2008-04-03, 02:13:00,VALID,917.455,VALID,0,VALID,100,VALID,-0.0679233,VALID,20.6501,VALID,3,VALID,1.3266,
2008-04-03, 02:14:00,VALID,917.401,VALID,0,VALID,100,VALID,-0.0509425,VALID,20.6311,VALID,352,VALID,1.30069,
2008-04-03, 02:15:00,VALID,917.341,VALID,0,VALID,100,VALID,-0.0849042,VALID,20.6114,VALID,9,VALID,1.23003,
2008-04-03, 02:16:00,VALID,917.292,VALID,0,VALID,100,VALID,-0.0849042,VALID,20.6217,VALID,3,VALID,1.41592,
2008-04-03, 02:17:00,VALID,917.248,VALID,0,VALID,100,VALID,-0.0849042,VALID,20.6019,VALID,22,VALID,1.43661,
2008-04-03, 02:18:00,VALID,917.2,VALID,0,VALID,100,VALID,-0.0849042,VALID,20.6019,VALID,15,VALID,1.30774,
2008-04-03, 02:19:00,VALID,917.163,VALID,0,VALID,100,VALID,-0.101885,VALID,20.5755,VALID,18,VALID,1.91701,
2008-04-03, 02:20:00,VALID,917.148,VALID,0,VALID,100,VALID,-0.0849042,VALID,20.566,VALID,18,VALID,1.14283,
2008-04-03, 02:21:00,VALID,917.124,VALID,0,VALID,100,VALID,-0.0679233,VALID,20.569,VALID,352,VALID,1.07999,
2008-04-03, 02:22:00,VALID,917.104,VALID,0,VALID,100,VALID,-0.0679233,VALID,20.5562,VALID,358,VALID,0.779948,
2008-04-03, 02:23:00,VALID,917.073,VALID,0,VALID,100,VALID,-0.0679233,VALID,20.5398,VALID,9,VALID,0.898628,
2008-04-03, 02:24:00,VALID,917.031,VALID,0,VALID,100,VALID,-0.0679233,VALID,20.5398,VALID,8,VALID,1.11458,
2008-04-03, 02:25:00,VALID,916.979,VALID,0,VALID,100,VALID,-0.0509425,VALID,20.5268,VALID,336,VALID,1.02232,
2008-04-03, 02:26:00,VALID,916.933,VALID,0,VALID,100,VALID,-0.101885,VALID,20.5173,VALID,356,VALID,1.1786,
2008-04-03, 02:27:00,VALID,916.879,VALID,0,VALID,100,VALID,-0.0679233,VALID,20.4976,VALID,23,VALID,0.975586,
2008-04-03, 02:28:00,VALID,916.829,VALID,0,VALID,100,VALID,-0.0679233,VALID,20.5011,VALID,358,VALID,0.838986,
2008-04-03, 02:29:00,VALID,916.767,VALID,0,VALID,100,VALID,-0.0509425,VALID,20.4943,VALID,12,VALID,0.956101,
2008-04-03, 02:30:00,VALID,916.712,VALID,0,VALID,100,VALID,-0.0849042,VALID,20.4943,VALID,25,VALID,0.945503,
2008-04-03, 02:31:00,VALID,916.668,VALID,0,VALID,100,VALID,-0.0339617,VALID,20.4878,VALID,20,VALID,0.58718,
2008-04-03, 02:32:00,VALID,916.609,VALID,0,VALID,100,VALID,-0.0679233,VALID,20.4746,VALID,25,VALID,1.1668,
2008-04-03, 02:33:00,VALID,916.559,VALID,0,VALID,100,VALID,-0.0339617,VALID,20.4748,VALID,22,VALID,0.896913,
2008-04-03, 02:34:00,VALID,916.494,VALID,0,VALID,100,VALID,-0.0509425,VALID,20.4551,VALID,20,VALID,1.01734,
2008-04-03, 02:35:00,VALID,916.468,VALID,0,VALID,100,VALID,0.0339617,VALID,20.4573,VALID,15,VALID,0.980283,
2008-04-03, 02:36:00,VALID,916.445,VALID,0,VALID,100,VALID,0.0339617,VALID,20.4408,VALID,12,VALID,0.619855,
2008-04-03, 02:37:00,VALID,916.419,VALID,0,VALID,100,VALID,0.0339617,VALID,20.4411,VALID,18,VALID,0.494731,
2008-04-03, 02:38:00,VALID,916.403,VALID,0,VALID,100,VALID,0.0169808,VALID,20.4376,VALID,32,VALID,0.184837,
2008-04-03, 02:39:00,VALID,916.379,VALID,0,VALID,100,VALID,0.0169808,VALID,20.4146,VALID,17,VALID,0.458147,
2008-04-03, 02:40:00,VALID,916.366,VALID,0,VALID,100,VALID,0.0339617,VALID,20.3922,VALID,22,VALID,0.778392,
2008-04-03, 02:41:00,VALID,916.327,VALID,0,VALID,100,VALID,0,VALID,20.3919,VALID,27,VALID,0.952553,
2008-04-03, 02:42:00,VALID,916.31,VALID,0,VALID,100,VALID,0.0679233,VALID,20.4084,VALID,28,VALID,1.14725,
2008-04-03, 02:43:00,VALID,916.271,VALID,0,VALID,100,VALID,0.0679233,VALID,20.4209,VALID,18,VALID,0.812695,
2008-04-03, 02:44:00,VALID,916.226,VALID,0,VALID,100,VALID,0.0339617,VALID,20.4376,VALID,16,VALID,0.466264,
2008-04-03, 02:45:00,VALID,916.185,VALID,0,VALID,100,VALID,0.0849042,VALID,20.4368,VALID,16,VALID,0.00576637,
2008-04-03, 02:46:00,VALID,916.143,VALID,0,VALID,100,VALID,0.0509425,VALID,20.4538,VALID,16,VALID,0,
2008-04-03, 02:47:00,VALID,916.105,VALID,0,VALID,100,VALID,0.0509425,VALID,20.4598,VALID,16,VALID,0,
2008-04-03, 02:48:00,VALID,916.058,VALID,0,VALID,100,VALID,0.0169808,VALID,20.4636,VALID,16,VALID,0,
2008-04-03, 02:49:00,VALID,916.029,VALID,0,VALID,100,VALID,0,VALID,20.4571,VALID,16,VALID,0,
2008-04-03, 02:50:00,VALID,915.989,VALID,0,VALID,100,VALID,-0.0679233,VALID,20.4427,VALID,272,VALID,0.0505087,
2008-04-03, 02:51:00,VALID,915.945,VALID,0,VALID,100,VALID,-0.0849042,VALID,20.4367,VALID,260,VALID,0,
2008-04-03, 02:52:00,VALID,915.922,VALID,0,VALID,100,VALID,-0.0849042,VALID,20.4237,VALID,260,VALID,0,
2008-04-03, 02:53:00,VALID,915.917,VALID,0,VALID,100,VALID,-0.101885,VALID,20.404,VALID,293,VALID,0.127148,
2008-04-03, 02:54:00,VALID,915.916,VALID,0,VALID,100,VALID,-0.118866,VALID,20.3813,VALID,356,VALID,0.409375,
2008-04-03, 02:55:00,VALID,915.914,VALID,0,VALID,100,VALID,-0.0849042,VALID,20.359,VALID,356,VALID,0.00230824,
2008-04-03, 02:56:00,VALID,915.91,VALID,0,VALID,100,VALID,-0.101885,VALID,20.3423,VALID,356,VALID,0.0012718,
2008-04-03, 02:57:00,VALID,915.912,VALID,0,VALID,100,VALID,-0.101885,VALID,20.3193,VALID,356,VALID,0,
2008-04-03, 02:58:00,VALID,915.902,VALID,0,VALID,100,VALID,-0.101885,VALID,20.2939,VALID,21,VALID,0.281424,
2008-04-03, 02:59:00,VALID,915.884,VALID,0,VALID,100,VALID,-0.101885,VALID,20.2712,VALID,39,VALID,0.519259,
2008-04-03, 03:00:00,VALID,915.873,VALID,0,VALID,100,VALID,-0.0849042,VALID,20.2479,VALID,40,VALID,0.811166,
2008-04-03, 03:01:00,VALID,915.849,VALID,0,VALID,100,VALID,-0.0679233,VALID,20.2122,VALID,40,VALID,0.889509,
2008-04-03, 03:02:01,VALID,915.83,VALID,0,VALID,100,VALID,-0.101885,VALID,20.2122,VALID,37,VALID,0.64939,
2008-04-03, 03:03:00,VALID,915.808,VALID,0,VALID,100,VALID,-0.101885,VALID,20.2192,VALID,29,VALID,0.275724,
2008-04-03, 03:04:00,VALID,915.799,VALID,0,VALID,100,VALID,-0.0679233,VALID,20.1863,VALID,29,VALID,0.246911,
2008-04-03, 03:05:00,VALID,915.79,VALID,0,VALID,100,VALID,-0.0849042,VALID,20.1701,VALID,29,VALID,0,
2008-04-03, 03:06:00,VALID,915.778,VALID,0,VALID,100,VALID,-0.0849042,VALID,20.1473,VALID,29,VALID,0,
2008-04-03, 03:07:00,VALID,915.769,VALID,0,VALID,100,VALID,-0.0849042,VALID,20.1344,VALID,29,VALID,0,
2008-04-03, 03:08:01,VALID,915.763,VALID,0,VALID,100,VALID,-0.0679233,VALID,20.1146,VALID,30,VALID,0,
2008-04-03, 03:09:00,VALID,915.762,VALID,0,VALID,100,VALID,-0.0849042,VALID,20.0984,VALID,66,VALID,0.500977,
2008-04-03, 03:10:00,VALID,915.78,VALID,0,VALID,100,VALID,-0.101885,VALID,20.1024,VALID,72,VALID,0.744141,
2008-04-03, 03:11:01,VALID,915.821,VALID,0,VALID,100,VALID,-0.0679233,VALID,20.0922,VALID,72,VALID,0.723292,
2008-04-03, 03:12:00,VALID,915.872,VALID,0,VALID,100,VALID,-0.0849042,VALID,20.0725,VALID,72,VALID,0.201705,
2008-04-03, 03:13:00,VALID,915.914,VALID,0,VALID,100,VALID,-0.0509425,VALID,20.0662,VALID,72,VALID,0,
2008-04-03, 03:14:01,VALID,915.96,VALID,0,VALID,100,VALID,-0.0849042,VALID,20.0495,VALID,78,VALID,0,
2008-04-03, 03:15:01,VALID,915.979,VALID,0,VALID,100,VALID,-0.0339617,VALID,20.0532,VALID,88,VALID,0,
2008-04-03, 03:16:01,VALID,916.016,VALID,0,VALID,100,VALID,-0.0509425,VALID,20.0595,VALID,97,VALID,0,
2008-04-03, 03:17:00,VALID,916.022,VALID,0,VALID,100,VALID,-0.0509425,VALID,20.053,VALID,98,VALID,0,
2008-04-03, 03:18:00,VALID,916.053,VALID,0,VALID,100,VALID,-0.101885,VALID,20.057,VALID,97,VALID,0,
2008-04-03, 03:19:00,VALID,916.075,VALID,0,VALID,100,VALID,-0.0849042,VALID,20.0532,VALID,97,VALID,0,
2008-04-03, 03:20:00,VALID,916.105,VALID,0,VALID,100,VALID,-0.0169808,VALID,20.059,VALID,97,VALID,0,
2008-04-03, 03:21:00,VALID,916.14,VALID,0,VALID,100,VALID,0.0169808,VALID,20.0677,VALID,97,VALID,0,
2008-04-03, 03:22:01,VALID,916.172,VALID,0,VALID,100,VALID,0.0679233,VALID,20.0482,VALID,97,VALID,0,
2008-04-03, 03:23:01,VALID,916.198,VALID,0,VALID,100,VALID,0.0509425,VALID,20.0287,VALID,97,VALID,0.0801711,
2008-04-03, 03:24:00,VALID,916.246,VALID,0,VALID,100,VALID,0.0169808,VALID,20.0322,VALID,97,VALID,0,
2008-04-03, 03:25:00,VALID,916.279,VALID,0,VALID,100,VALID,0.0339617,VALID,20.038,VALID,97,VALID,0.00111607,
2008-04-03, 03:26:01,VALID,916.329,VALID,0,VALID,100,VALID,0.0169808,VALID,20.0679,VALID,97,VALID,0,
2008-04-03, 03:27:01,VALID,916.365,VALID,0,VALID,100,VALID,0.0509425,VALID,20.1004,VALID,97,VALID,0,
2008-04-03, 03:28:00,VALID,916.389,VALID,0,VALID,100,VALID,0.0169808,VALID,20.1196,VALID,97,VALID,0,
2008-04-03, 03:29:01,VALID,916.424,VALID,0,VALID,100,VALID,0.0169808,VALID,20.1555,VALID,97,VALID,0,
2008-04-03, 03:30:00,VALID,916.439,VALID,0,VALID,100,VALID,0.0509425,VALID,20.1847,VALID,97,VALID,0,
2008-04-03, 03:31:00,VALID,916.467,VALID,0,VALID,100,VALID,0.0169808,VALID,20.204,VALID,97,VALID,0,
2008-04-03, 03:32:00,VALID,916.486,VALID,0,VALID,100,VALID,0.0169808,VALID,20.2359,VALID,97,VALID,0,
2008-04-03, 03:33:01,VALID,916.49,VALID,0,VALID,100,VALID,0.0169808,VALID,20.2918,VALID,97,VALID,0,
2008-04-03, 03:34:01,VALID,916.5,VALID,0,VALID,100,VALID,0,VALID,20.3273,VALID,92,VALID,0,
2008-04-03, 03:35:00,VALID,916.522,VALID,0,VALID,100,VALID,-0.0509425,VALID,20.3415,VALID,86,VALID,0,
2008-04-03, 03:36:01,VALID,916.535,VALID,0,VALID,100,VALID,-0.0849042,VALID,20.3515,VALID,86,VALID,0,
2008-04-03, 03:37:00,VALID,916.567,VALID,0,VALID,100,VALID,-0.101885,VALID,20.3585,VALID,86,VALID,0,
2008-04-03, 03:38:00,VALID,916.561,VALID,0,VALID,100,VALID,-0.101885,VALID,20.368,VALID,86,VALID,0,
2008-04-03, 03:39:00,VALID,916.583,VALID,0,VALID,100,VALID,-0.0849042,VALID,20.3515,VALID,86,VALID,0,
2008-04-03, 03:40:00,VALID,916.577,VALID,0,VALID,100,VALID,-0.0849042,VALID,20.3683,VALID,86,VALID,0,
2008-04-03, 03:41:00,VALID,916.56,VALID,0,VALID,100,VALID,-0.101885,VALID,20.3615,VALID,86,VALID,0,
2008-04-03, 03:42:00,VALID,916.523,VALID,0,VALID,100,VALID,-0.0849042,VALID,20.358,VALID,86,VALID,0,